QPF
0.00 0.00 0.00 0.00 0.01 0.00 0.00 0.00 0.00 0.00 0.00 0.00 0.00 0.00 0.00 0.00 0.00 0.00 0.00 0.00 0.00 0.00 0.00 0.00 0.00 0.00 0.00 0.00 0.00 0.00 0.00 0.00 0.00 0.00 0.00 0.00 0.01 0.01 0.00 0.00 0.00 0.00 0.00 0.00 0.00 0.00 0.00 0.00 0.01
0.00 0.00 0.00 0.00 0.00 0.00 0.00 0.00 0.00 0.00 0.00 0.00 0.00 0.00 0.00 0.00 0.00 0.00 0.00 0.00 0.00 0.00 0.00 0.00 0.00 0.00 0.00 0.00 0.00 0.00 0.00 0.00 0.00 0.00 0.00 0.01 0.01 0.00 0.00 0.00 0.00 0.00 0.00 0.00 0.00 0.01 0.00 0.00 0.00
0.00 0.00 0.00 0.00 0.00 0.00 0.00 0.00 0.00 0.00 0.00 0.00 0.00 0.00 0.00 0.00 0.00 0.00 0.00 0.00 0.00 0.00 0.00 0.00 0.00 0.00 0.00 0.00 0.00 0.00 0.00 0.00 0.00 0.00 0.00 0.00 0.00 0.00 0.00 0.00 0.00 0.00 0.00 0.00 0.00 0.00 0.00 0.00 0.00
0.00 0.00 0.00 0.00 0.00 0.00 0.00 0.00 0.00 0.00 0.00 0.00 0.00 0.00 0.00 0.00 0.00 0.00 0.00 0.00 0.00 0.00 0.00 0.00 0.00 0.00 0.00 0.00 0.00 0.00 0.00 0.00 0.00 0.00 0.00 0.00 0.00 0.00 0.00 0.00 0.00 0.00 0.00 0.00 0.00 0.00 0.00 0.00 0.00
0.00 0.00 0.00 0.00 0.00 0.00 0.00 0.00 0.00 0.00 0.00 0.00 0.00 0.00 0.00 0.00 0.00 0.00 0.00 0.00 0.00 0.00 0.00 0.00 0.00 0.00 0.00 0.00 0.00 0.00 0.00 0.00 0.00 0.00 0.00 0.00 0.00 0.00 0.00 0.00 0.00 0.00 0.00 0.00 0.00 0.00 0.00 0.00 0.00
0.00 0.00 0.00 0.00 0.00 0.00 0.00 0.00 0.00 0.00 0.00 0.00 0.00 0.00 0.00 0.00 0.00 0.00 0.00 0.00 0.00 0.00 0.00 0.00 0.00 0.00 0.00 0.00 0.00 0.00 0.00 0.00 0.00 0.00 0.00 0.00 0.00 0.00 0.00 0.00 0.00 0.00 0.00 0.00 0.00 0.00 0.00 0.00 0.00
0.00 0.00 0.00 0.00 0.00 0.00 0.00 0.00 0.00 0.00 0.00 0.00 0.00 0.00 0.00 0.00 0.00 0.00 0.00 0.00 0.00 0.00 0.00 0.00 0.00 0.00 0.00 0.00 0.00 0.00 0.00 0.00 0.00 0.00 0.00 0.00 0.00 0.00 0.00 0.00 0.00 0.00 0.00 0.00 0.00 0.00 0.00 0.00 0.00
0.00 0.00 0.00 0.00 0.00 0.00 0.00 0.00 0.00 0.00 0.00 0.00 0.00 0.00 0.00 0.00 0.00 0.00 0.00 0.00 0.00 0.00 0.00 0.00 0.00 0.00 0.00 0.00 0.00 0.00 0.00 0.00 0.00 0.00 0.00 0.00 0.00 0.00 0.00 0.00 0.00 0.00 0.00 0.00 0.00 0.00 0.00 0.00 0.00
0.00 0.00 0.00 0.00 0.00 0.00 0.00 0.00 0.00 0.00 0.00 0.00 0.00 0.00 0.00 0.00 0.00 0.00 0.00 0.00 0.00 0.00 0.00 0.00 0.00 0.00 0.00 0.00 0.00 0.00 0.00 0.00 0.00 0.00 0.00 0.00 0.00 0.00 0.00 0.00 0.00 0.00 0.00 0.00 0.00 0.00 0.00 0.00 0.00
0.00 0.00 0.00 0.00 0.00 0.00 0.00 0.00 0.00 0.00 0.00 0.00 0.00 0.00 0.00 0.00 0.00 0.00 0.00 0.00 0.00 0.00 0.00 0.00 0.00 0.00 0.00 0.00 0.00 0.00 0.00 0.00 0.00 0.00 0.00 0.00 0.00 0.00 0.00 0.00 0.00 0.00 0.00 0.00 0.00 0.00 0.00 0.00 0.00
0.00 0.00 0.00 0.00 0.00 0.00 0.00 0.00 0.00 0.00 0.00 0.00 0.00 0.00 0.00 0.00 0.00 0.00 0.00 0.00 0.00 0.00 0.00 0.00 0.00 0.00 0.00 0.00 0.00 0.00 0.00 0.00 0.00 0.00 0.00 0.00 0.00 0.00 0.00 0.00 0.00 0.00 0.00 0.00 0.00 0.00 0.00 0.00 0.00
0.00 0.00 0.00 0.00 0.00 0.00 0.00 0.00 0.00 0.00 0.00 0.00 0.00 0.00 0.00 0.00 0.00 0.00 0.00 0.00 0.00 0.00 0.00 0.00 0.00 0.00 0.00 0.00 0.00 0.00 0.00 0.00 0.00 0.00 0.00 0.00 0.00 0.00 0.00 0.00 0.00 0.00 0.00 0.00 0.00 0.00 0.00 0.00 0.00
0.00 0.00 0.00 0.00 0.00 0.00 0.00 0.00 0.00 0.00 0.00 0.00 0.00 0.00 0.00 0.00 0.00 0.00 0.00 0.00 0.00 0.00 0.00 0.00 0.00 0.00 0.00 0.00 0.00 0.00 0.00 0.00 0.00 0.00 0.00 0.00 0.00 0.00 0.00 0.00 0.00 0.00 0.00 0.00 0.00 0.00 0.00 0.00 0.00
0.00 0.00 0.00 0.00 0.00 0.00 0.00 0.00 0.00 0.00 0.00 0.00 0.00 0.00 0.00 0.00 0.00 0.00 0.00 0.00 0.00 0.00 0.00 0.00 0.00 0.00 0.00 0.00 0.00 0.00 0.00 0.00 0.00 0.00 0.00 0.00 0.00 0.00 0.00 0.00 0.00 0.00 0.00 0.00 0.00 0.00 0.00 0.00 0.00
0.00 0.00 0.00 0.00 0.00 0.00 0.00 0.00 0.00 0.00 0.00 0.00 0.00 0.00 0.00 0.00 0.00 0.00 0.00 0.00 0.00 0.00 0.00 0.00 0.00 0.00 0.00 0.00 0.00 0.00 0.00 0.00 0.00 0.00 0.00 0.00 0.00 0.00 0.00 0.00 0.00 0.00 0.00 0.00 0.00 0.00 0.00 0.00 0.00
0.00 0.00 0.00 0.00 0.00 0.00 0.00 0.00 0.00 0.00 0.00 0.00 0.00 0.00 0.00 0.00 0.00 0.00 0.00 0.00 0.00 0.00 0.00 0.00 0.00 0.00 0.00 0.00 0.00 0.00 0.00 0.00 0.00 0.00 0.00 0.00 0.00 0.00 0.00 0.00 0.00 0.00 0.00 0.00 0.00 0.00 0.00 0.00 0.00
0.00 0.00 0.00 0.00 0.00 0.00 0.00 0.00 0.00 0.00 0.00 0.00 0.00 0.00 0.00 0.00 0.00 0.00 0.00 0.00 0.00 0.00 0.00 0.00 0.00 0.00 0.00 0.00 0.00 0.00 0.00 0.00 0.00 0.00 0.00 0.00 0.00 0.00 0.00 0.00 0.00 0.00 0.00 0.00 0.00 0.00 0.00 0.00 0.00
0.00 0.00 0.00 0.00 0.00 0.00 0.00 0.00 0.00 0.00 0.00 0.00 0.00 0.00 0.00 0.00 0.00 0.00 0.00 0.00 0.00 0.00 0.00 0.00 0.00 0.00 0.00 0.00 0.00 0.00 0.00 0.00 0.00 0.00 0.00 0.00 0.00 0.00 0.00 0.00 0.00 0.00 0.00 0.00 0.00 0.00 0.00 0.00 0.00
0.00 0.00 0.00 0.00 0.00 0.00 0.00 0.00 0.00 0.00 0.00 0.00 0.00 0.00 0.00 0.00 0.00 0.00 0.00 0.00 0.00 0.00 0.00 0.00 0.00 0.00 0.00 0.00 0.00 0.00 0.00 0.00 0.00 0.00 0.00 0.00 0.00 0.00 0.00 0.00 0.00 0.00 0.00 0.00 0.00 0.01 0.01 0.01 0.01
0.00 0.00 0.00 0.00 0.00 0.00 0.00 0.00 0.00 0.00 0.00 0.00 0.00 0.00 0.00 0.00 0.00 0.00 0.00 0.00 0.00 0.00 0.00 0.00 0.00 0.00 0.00 0.00 0.00 0.00 0.00 0.00 0.00 0.00 0.00 0.00 0.00 0.00 0.00 0.00 0.00 0.00 0.00 0.00 0.00 0.00 0.01 0.01 0.01
0.00 0.00 0.00 0.00 0.00 0.00 0.00 0.00 0.00 0.00 0.00 0.00 0.00 0.00 0.00 0.00 0.00 0.00 0.00 0.00 0.00 0.00 0.00 0.00 0.00 0.00 0.00 0.00 0.00 0.00 0.00 0.00 0.00 0.00 0.00 0.00 0.00 0.00 0.00 0.00 0.00 0.00 0.00 0.00 0.00 0.00 0.01 0.02 0.01
0.00 0.00 0.00 0.00 0.00 0.00 0.00 0.00 0.00 0.00 0.00 0.00 0.00 0.00 0.00 0.00 0.00 0.00 0.00 0.00 0.00 0.00 0.00 0.00 0.00 0.00 0.00 0.00 0.00 0.00 0.00 0.00 0.00 0.00 0.00 0.00 0.00 0.00 0.00 0.00 0.00 0.00 0.00 0.00 0.00 0.00 0.00 0.01 0.01
0.00 0.00 0.00 0.00 0.00 0.00 0.00 0.00 0.00 0.00 0.00 0.00 0.00 0.00 0.00 0.00 0.00 0.00 0.00 0.00 0.00 0.00 0.00 0.00 0.00 0.00 0.00 0.00 0.00 0.00 0.00 0.00 0.00 0.00 0.00 0.00 0.00 0.00 0.00 0.00 0.00 0.00 0.00 0.00 0.00 0.00 0.00 0.00 0.00
0.00 0.00 0.00 0.00 0.00 0.00 0.00 0.00 0.00 0.00 0.00 0.00 0.00 0.00 0.00 0.00 0.00 0.00 0.00 0.00 0.00 0.00 0.00 0.00 0.00 0.00 0.00 0.00 0.00 0.00 0.00 0.00 0.00 0.00 0.00 0.00 0.00 0.00 0.00 0.00 0.00 0.00 0.00 0.00 0.00 0.00 0.00 0.00 0.00
0.00 0.00 0.00 0.00 0.00 0.00 0.00 0.00 0.00 0.00 0.00 0.00 0.00 0.00 0.00 0.00 0.00 0.00 0.00 0.00 0.00 0.00 0.00 0.00 0.00 0.00 0.00 0.00 0.00 0.00 0.00 0.00 0.00 0.00 0.00 0.00 0.00 0.00 0.00 0.00 0.00 0.00 0.00 0.00 0.00 0.00 0.00 0.00 0.00
0.00 0.00 0.00 0.00 0.00 0.00 0.00 0.00 0.00 0.00 0.00 0.00 0.00 0.00 0.00 0.00 0.00 0.00 0.00 0.00 0.00 0.00 0.00 0.00 0.00 0.00 0.00 0.00 0.00 0.00 0.00 0.00 0.00 0.00 0.00 0.00 0.00 0.00 0.00 0.00 0.00 0.00 0.00 0.00 0.00 0.00 0.00 0.00 0.00
0.00 0.00 0.00 0.00 0.00 0.00 0.00 0.00 0.00 0.00 0.00 0.00 0.00 0.00 0.00 0.00 0.00 0.00 0.00 0.00 0.00 0.00 0.00 0.00 0.00 0.00 0.00 0.00 0.00 0.00 0.00 0.00 0.00 0.00 0.00 0.00 0.00 0.00 0.00 0.00 0.00 0.00 0.00 0.00 0.00 0.00 0.00 0.00 0.00
0.00 0.00 0.00 0.00 0.00 0.00 0.00 0.00 0.00 0.00 0.00 0.00 0.00 0.00 0.00 0.00 0.00 0.00 0.00 0.00 0.00 0.00 0.00 0.00 0.00 0.00 0.00 0.00 0.00 0.00 0.00 0.00 0.00 0.00 0.00 0.00 0.00 0.00 0.00 0.00 0.00 0.00 0.00 0.00 0.00 0.00 0.00 0.00 0.00
0.00 0.00 0.00 0.00 0.00 0.00 0.00 0.00 0.00 0.00 0.00 0.00 0.00 0.00 0.00 0.00 0.00 0.00 0.00 0.00 0.00 0.00 0.00 0.00 0.00 0.00 0.00 0.00 0.00 0.00 0.00 0.00 0.00 0.00 0.00 0.00 0.00 0.00 0.00 0.00 0.00 0.00 0.00 0.00 0.00 0.00 0.00 0.00 0.00
0.00 0.00 0.00 0.00 0.00 0.00 0.00 0.00 0.00 0.00 0.00 0.00 0.00 0.00 0.00 0.00 0.00 0.00 0.00 0.00 0.00 0.00 0.00 0.00 0.00 0.00 0.00 0.00 0.00 0.00 0.00 0.00 0.00 0.00 0.00 0.00 0.00 0.00 0.00 0.00 0.00 0.00 0.00 0.00 0.00 0.00 0.00 0.00 0.00
MSLP
1013.08 1012.58 1011.97 1011.99 1011.50 1009.95 1009.62 1010.88 1011.80 1012.81 1013.59 1014.96 1015.23 1015.18 1016.72 1018.18 1019.09 1021.35 1023.69 1023.80 1023.86 1023.85 1023.85 1023.76 1024.49 1024.37 1024.17 1023.99 1023.72 1023.46 1023.26 1023.10 1022.88 1022.81 1022.76 1022.51 1022.10 1021.98 1021.81 1021.49 1021.26 1021.14 1020.92 1020.74 1020.36 1020.15 1020.06 1019.91 1019.58
1012.53 1012.17 1012.02 1011.05 1010.48 1008.98 1010.06 1011.17 1012.19 1013.77 1015.03 1015.76 1016.22 1016.49 1017.23 1019.59 1021.02 1022.50 1023.13 1024.09 1024.02 1024.20 1024.21 1024.47 1024.85 1024.61 1024.39 1024.15 1023.89 1023.78 1023.60 1023.41 1023.28 1023.25 1023.11 1022.88 1022.67 1022.29 1022.16 1021.85 1021.53 1021.32 1021.28 1021.00 1020.62 1020.32 1020.19 1020.00 1019.84
1012.87 1012.50 1011.44 1010.55 1009.70 1009.65 1010.41 1011.98 1013.58 1015.07 1015.89 1016.18 1017.08 1017.86 1018.87 1020.90 1021.91 1022.63 1023.88 1024.09 1024.20 1024.46 1024.65 1025.23 1025.19 1024.98 1024.79 1024.46 1024.12 1023.96 1023.71 1023.63 1023.60 1023.58 1023.34 1023.17 1023.11 1023.06 1022.58 1022.24 1021.87 1021.72 1021.35 1021.19 1021.00 1020.64 1020.23 1020.00 1019.86
1012.25 1012.49 1011.84 1011.22 1009.89 1011.40 1011.79 1013.11 1014.52 1015.49 1016.48 1016.99 1017.40 1019.08 1021.16 1022.56 1022.47 1023.12 1024.11 1024.22 1024.32 1024.72 1024.96 1025.49 1025.61 1025.42 1025.24 1024.90 1024.51 1024.25 1024.02 1023.96 1023.84 1023.77 1023.85 1023.67 1023.72 1023.47 1023.21 1022.74 1022.49 1022.17 1021.77 1021.51 1021.36 1020.99 1020.48 1020.11 1019.99
1012.05 1011.26 1010.56 1010.18 1010.72 1012.29 1012.90 1013.98 1014.97 1015.50 1016.50 1017.26 1017.94 1019.48 1021.50 1023.16 1023.54 1023.85 1024.18 1024.33 1024.57 1024.90 1025.17 1025.47 1026.09 1025.95 1025.73 1025.28 1024.94 1024.58 1024.44 1024.35 1024.41 1024.31 1024.11 1024.05 1024.04 1023.94 1023.68 1023.32 1023.06 1022.73 1022.24 1021.95 1021.54 1021.14 1020.85 1020.63 1020.21
1011.26 1010.96 1010.08 1009.65 1011.05 1013.00 1013.90 1014.82 1015.38 1015.98 1016.98 1018.07 1018.41 1019.66 1021.93 1023.35 1023.59 1024.04 1024.20 1024.40 1024.80 1025.02 1025.36 1025.52 1025.72 1026.08 1026.13 1025.81 1025.65 1025.36 1025.16 1025.07 1024.96 1024.82 1024.51 1024.36 1024.30 1024.12 1023.84 1023.73 1023.42 1022.96 1022.55 1022.31 1021.90 1021.63 1021.29 1020.93 1020.63
1011.55 1010.85 1010.28 1010.73 1011.64 1013.33 1014.53 1015.51 1015.85 1016.47 1017.58 1018.64 1019.21 1019.50 1022.10 1023.13 1023.89 1024.11 1024.31 1024.60 1024.83 1025.17 1025.32 1025.42 1025.52 1025.70 1025.76 1026.07 1026.08 1025.96 1025.81 1025.61 1025.40 1025.21 1025.05 1024.77 1024.39 1024.01 1023.64 1023.57 1023.31 1023.08 1022.79 1022.45 1022.20 1021.90 1021.50 1021.11 1020.60
1012.26 1011.60 1011.06 1011.56 1012.09 1013.37 1015.39 1016.32 1017.05 1017.28 1018.60 1019.82 1019.95 1019.67 1021.51 1023.07 1024.02 1024.25 1024.39 1024.55 1024.94 1025.25 1025.39 1025.53 1025.55 1025.61 1025.59 1025.51 1026.00 1026.13 1025.97 1025.87 1025.71 1025.45 1025.30 1024.80 1024.05 1023.79 1023.66 1023.39 1023.46 1023.13 1022.89 1022.54 1022.27 1021.97 1021.58 1021.21 1020.93
1012.78 1011.86 1011.12 1012.19 1013.03 1014.50 1016.09 1016.79 1018.10 1018.72 1019.18 1020.15 1020.57 1020.73 1021.85 1023.38 1024.09 1024.05 1024.08 1024.17 1024.69 1025.17 1025.51 1025.60 1025.67 1025.69 1025.71 1025.40 1025.58 1025.66 1025.62 1025.56 1025.39 1025.14 1024.86 1024.37 1024.02 1023.79 1023.80 1023.52 1023.43 1023.06 1022.69 1022.38 1022.04 1021.70 1021.35 1020.99 1020.36
1012.72 1012.25 1013.15 1014.44 1014.74 1015.10 1016.38 1016.82 1018.09 1018.56 1019.35 1020.37 1021.22 1022.10 1022.90 1023.44 1023.38 1023.49 1023.87 1024.16 1024.71 1025.21 1025.48 1025.75 1025.88 1025.79 1025.71 1025.35 1025.51 1025.46 1025.34 1025.30 1025.19 1025.07 1024.98 1024.64 1024.22 1023.92 1023.64 1023.33 1023.12 1022.81 1022.54 1022.19 1021.72 1021.25 1020.87 1020.50 1020.35
1013.59 1013.64 1014.81 1015.77 1016.16 1016.12 1016.96 1017.63 1018.24 1018.27 1019.02 1019.66 1020.90 1022.02 1022.77 1023.09 1023.39 1023.48 1023.82 1024.28 1024.79 1025.23 1025.64 1025.89 1025.99 1025.86 1025.75 1025.57 1025.46 1025.27 1025.25 1025.30 1025.05 1025.04 1025.03 1024.85 1024.39 1023.93 1023.59 1023.30 1022.96 1022.72 1022.38 1022.06 1021.62 1021.27 1020.96 1020.73 1020.34
1014.21 1015.51 1015.81 1016.78 1017.17 1017.14 1017.38 1018.09 1018.41 1018.73 1019.50 1019.91 1020.75 1021.97 1022.69 1022.95 1023.11 1023.55 1023.93 1024.29 1024.69 1025.00 1025.63 1025.96 1026.17 1025.90 1025.82 1025.62 1025.44 1025.28 1025.19 1025.32 1025.10 1025.12 1025.07 1024.92 1024.53 1024.13 1023.74 1023.46 1023.23 1022.85 1022.46 1022.21 1021.96 1021.50 1021.15 1020.75 1020.32
1014.58 1016.01 1016.82 1017.46 1017.73 1017.78 1018.23 1018.34 1018.51 1019.54 1020.17 1020.45 1021.37 1022.17 1022.57 1022.85 1023.47 1023.86 1024.21 1024.57 1024.84 1024.92 1025.43 1025.74 1025.94 1026.11 1025.92 1025.63 1025.68 1025.55 1025.44 1025.40 1025.30 1025.12 1025.10 1024.90 1024.63 1024.29 1023.94 1023.61 1023.31 1023.06 1022.89 1022.84 1022.70 1022.11 1021.26 1020.88 1020.56
1015.51 1016.13 1016.98 1017.55 1017.92 1018.29 1018.30 1018.84 1019.12 1019.83 1020.41 1020.97 1021.67 1022.11 1022.47 1022.94 1023.39 1023.80 1024.10 1024.35 1024.51 1024.96 1025.39 1025.59 1025.80 1026.13 1026.21 1025.98 1025.96 1025.88 1025.63 1025.61 1025.32 1025.22 1025.18 1024.97 1024.87 1024.53 1024.17 1023.74 1023.58 1023.61 1023.75 1023.50 1023.24 1022.51 1021.94 1021.52 1020.81
1015.73 1015.96 1016.71 1017.31 1017.73 1018.15 1018.42 1018.59 1018.65 1019.42 1020.32 1020.85 1021.34 1021.89 1022.34 1022.94 1023.49 1023.53 1024.16 1024.35 1024.66 1024.82 1025.37 1025.79 1026.15 1026.12 1026.10 1025.95 1025.89 1025.76 1025.69 1025.67 1025.47 1025.35 1025.20 1025.16 1025.07 1024.82 1024.34 1023.84 1023.73 1024.09 1024.28 1024.01 1023.47 1022.83 1022.31 1021.77 1021.04
1015.06 1015.09 1014.97 1016.40 1017.43 1018.34 1018.68 1017.21 1018.16 1019.42 1019.98 1020.37 1020.91 1021.35 1022.18 1022.74 1023.06 1023.54 1024.16 1024.40 1024.82 1024.81 1025.21 1025.60 1025.88 1025.75 1025.82 1025.89 1025.91 1025.94 1025.92 1025.81 1025.67 1025.47 1025.30 1025.32 1025.12 1024.97 1024.59 1024.17 1024.03 1024.06 1024.10 1023.77 1023.22 1022.67 1022.32 1021.82 1021.16
1014.04 1013.17 1013.88 1015.63 1016.83 1017.46 1017.93 1016.75 1017.99 1019.10 1019.57 1019.83 1020.36 1020.68 1021.63 1022.16 1022.64 1023.30 1023.92 1024.42 1024.81 1025.27 1025.27 1025.40 1025.61 1025.76 1025.98 1026.00 1025.81 1025.72 1025.79 1025.75 1025.69 1025.62 1025.51 1025.48 1025.25 1025.11 1024.70 1024.13 1023.84 1024.02 1024.03 1023.59 1023.05 1022.62 1022.23 1021.63 1021.12
1012.62 1012.62 1013.39 1014.41 1016.15 1017.02 1016.82 1016.70 1017.30 1018.49 1018.94 1019.21 1019.75 1020.14 1020.81 1021.34 1022.01 1022.78 1023.74 1024.34 1024.86 1025.11 1025.38 1025.64 1025.68 1025.68 1025.99 1025.79 1025.68 1025.60 1025.49 1025.65 1025.69 1025.79 1025.71 1025.57 1025.42 1025.25 1024.85 1024.31 1023.84 1024.02 1024.07 1023.64 1023.11 1022.60 1022.08 1021.63 1021.08
1013.38 1013.28 1013.43 1014.38 1016.10 1016.42 1015.86 1015.76 1015.90 1017.24 1018.28 1018.59 1018.95 1019.44 1020.01 1020.68 1021.40 1022.52 1023.46 1024.15 1024.62 1024.99 1025.34 1025.43 1025.71 1025.84 1025.97 1025.85 1025.75 1025.79 1025.73 1025.62 1025.60 1025.75 1025.67 1025.62 1025.55 1025.29 1024.88 1024.45 1023.93 1023.57 1023.51 1023.57 1023.23 1022.68 1021.98 1021.61 1021.12
1013.73 1013.51 1013.38 1014.77 1015.89 1016.26 1015.03 1014.75 1014.90 1015.60 1016.97 1017.84 1018.19 1018.68 1019.20 1020.06 1020.89 1022.10 1023.02 1023.75 1024.17 1024.46 1025.04 1025.49 1025.74 1025.94 1025.97 1026.08 1026.23 1026.26 1025.98 1025.96 1025.93 1025.75 1025.65 1025.70 1025.45 1025.19 1024.85 1024.59 1024.07 1023.64 1023.26 1022.90 1023.16 1022.94 1022.30 1021.85 1021.30
1013.74 1014.06 1014.18 1014.83 1015.26 1015.27 1015.04 1013.70 1013.94 1014.85 1015.85 1016.95 1017.57 1017.99 1018.56 1019.36 1020.27 1021.24 1022.30 1023.16 1023.85 1024.32 1024.67 1025.37 1025.63 1025.84 1025.92 1026.11 1026.06 1026.08 1025.66 1025.47 1025.55 1025.80 1025.74 1025.61 1025.49 1025.30 1025.14 1024.78 1024.27 1023.82 1023.40 1022.99 1023.19 1022.97 1022.57 1021.92 1021.41
1014.77 1015.22 1015.29 1015.11 1014.81 1013.49 1014.21 1012.42 1012.59 1013.83 1014.99 1015.94 1016.74 1017.34 1017.96 1018.90 1019.96 1020.72 1021.83 1022.78 1023.47 1023.95 1024.58 1025.11 1025.36 1025.68 1025.90 1026.02 1025.83 1025.80 1025.68 1025.57 1025.75 1025.69 1025.51 1025.34 1025.30 1025.15 1024.95 1024.62 1024.26 1023.87 1023.37 1023.01 1022.78 1022.66 1022.48 1022.11 1021.59
1016.00 1016.22 1015.62 1015.15 1014.43 1013.58 1012.87 1012.56 1011.60 1012.65 1013.38 1014.21 1015.36 1016.27 1017.32 1018.33 1019.40 1020.35 1021.28 1022.13 1022.97 1023.63 1024.26 1024.71 1025.23 1025.52 1025.69 1025.92 1025.97 1025.94 1025.65 1025.49 1025.44 1025.42 1025.25 1025.06 1024.95 1024.82 1024.65 1024.48 1024.27 1024.00 1023.56 1023.03 1022.55 1022.12 1021.85 1021.74 1021.40
1016.77 1016.30 1015.53 1014.87 1013.86 1012.55 1011.70 1011.73 1010.52 1011.01 1011.36 1012.46 1013.93 1015.40 1016.64 1017.83 1018.88 1019.92 1020.91 1021.84 1022.73 1023.61 1024.30 1024.64 1024.90 1025.18 1025.40 1025.60 1025.78 1025.89 1025.86 1025.71 1025.51 1025.28 1025.07 1024.84 1024.65 1024.47 1024.35 1024.33 1024.10 1023.79 1023.53 1023.17 1022.52 1021.93 1021.54 1021.19 1020.93
1016.72 1015.57 1013.97 1013.35 1012.63 1011.16 1011.82 1011.42 1009.30 1010.21 1011.40 1012.24 1013.47 1014.80 1016.11 1017.34 1018.55 1019.60 1020.64 1021.69 1022.61 1023.26 1023.88 1024.26 1024.62 1024.74 1024.93 1025.28 1025.41 1025.61 1025.69 1025.71 1025.53 1025.22 1024.96 1024.81 1024.48 1024.31 1024.25 1024.20 1023.97 1023.70 1023.32 1022.94 1022.37 1021.70 1021.40 1021.06 1020.80
1016.32 1015.90 1014.61 1013.21 1011.69 1011.13 1011.82 1010.29 1009.45 1010.31 1011.82 1012.99 1013.90 1014.65 1015.77 1017.06 1018.19 1019.25 1020.31 1021.28 1022.07 1022.74 1023.34 1023.83 1024.18 1024.40 1024.75 1024.95 1025.17 1025.36 1025.41 1025.40 1025.19 1024.94 1024.86 1024.70 1024.47 1024.25 1024.17 1024.05 1023.82 1023.46 1023.24 1022.86 1022.21 1021.55 1021.24 1020.79 1020.50
1016.82 1016.18 1015.80 1014.31 1012.77 1011.56 1009.60 1009.05 1010.16 1011.03 1011.92 1012.99 1013.93 1014.93 1015.56 1016.57 1017.71 1018.76 1019.79 1020.64 1021.43 1022.18 1022.78 1023.25 1023.64 1024.08 1024.43 1024.75 1024.99 1025.01 1025.07 1024.98 1024.90 1024.79 1024.69 1024.48 1024.32 1024.12 1023.91 1023.80 1023.52 1023.25 1022.77 1022.59 1022.22 1021.52 1021.02 1020.79 1020.44
1017.32 1016.96 1016.04 1014.78 1013.25 1011.01 1008.67 1008.40 1008.29 1009.92 1010.66 1011.96 1013.17 1014.16 1015.20 1016.19 1017.24 1018.17 1019.15 1020.06 1020.87 1021.56 1022.23 1022.83 1023.33 1023.66 1023.92 1024.28 1024.48 1024.55 1024.56 1024.57 1024.53 1024.49 1024.38 1024.30 1024.17 1024.01 1023.78 1023.52 1023.23 1022.88 1022.47 1022.08 1022.25 1021.76 1020.98 1020.71 1020.38
1017.37 1016.47 1016.15 1015.56 1014.02 1012.36 1010.14 1007.73 1008.02 1008.32 1009.36 1010.45 1011.85 1013.13 1014.32 1015.49 1016.59 1017.54 1018.44 1019.33 1020.26 1020.93 1021.55 1022.09 1022.59 1023.11 1023.51 1023.89 1024.06 1024.19 1024.28 1024.30 1024.29 1024.21 1024.16 1024.02 1023.87 1023.74 1023.53 1023.22 1023.00 1022.67 1022.23 1021.82 1021.81 1021.56 1020.80 1020.53 1020.26
1016.99 1016.07 1015.47 1015.17 1014.38 1013.36 1012.34 1009.44 1008.51 1008.49 1009.06 1009.89 1010.81 1012.09 1013.54 1014.69 1015.78 1016.84 1017.80 1018.66 1019.45 1020.30 1021.00 1021.58 1022.12 1022.61 1023.05 1023.41 1023.69 1023.87 1024.02 1024.14 1024.04 1023.87 1023.69 1023.65 1023.60 1023.38 1023.09 1022.94 1022.78 1022.48 1022.12 1021.78 1021.44 1021.37 1020.73 1020.37 1020.08
Thickness
5751 5755 5759 5747 5722 5736 5728 5722 5731 5714 5711 5706 5707 5704 5684 5675 5668 5655 5639 5639 5636 5634 5633 5632 5625 5624 5623 5622 5622 5623 5623 5623 5624 5624 5624 5625 5628 5629 5631 5633 5634 5635 5637 5638 5640 5643 5645 5649 5654
5754 5756 5751 5744 5722 5730 5719 5732 5718 5710 5703 5702 5698 5695 5686 5658 5656 5644 5640 5633 5631 5627 5625 5622 5617 5616 5616 5616 5615 5613 5612 5612 5612 5612 5612 5613 5615 5617 5619 5622 5624 5625 5625 5628 5631 5633 5634 5636 5640
5751 5753 5740 5735 5736 5724 5722 5724 5709 5700 5699 5697 5685 5685 5675 5651 5650 5643 5633 5629 5625 5620 5617 5610 5609 5607 5606 5607 5607 5605 5605 5603 5600 5599 5600 5601 5601 5600 5603 5607 5610 5612 5615 5617 5619 5623 5625 5627 5630
5750 5742 5739 5719 5728 5719 5722 5716 5705 5696 5692 5690 5688 5664 5654 5645 5644 5638 5628 5623 5619 5613 5608 5603 5599 5597 5595 5594 5594 5594 5593 5591 5589 5587 5585 5586 5586 5587 5587 5590 5592 5596 5600 5603 5605 5609 5613 5616 5618
5752 5748 5730 5730 5726 5716 5720 5714 5706 5697 5690 5684 5682 5661 5646 5637 5634 5629 5622 5617 5612 5605 5599 5594 5586 5583 5581 5579 5578 5578 5576 5574 5572 5571 5571 5570 5570 5572 5573 5574 5576 5579 5582 5586 5590 5595 5598 5600 5604
5738 5744 5728 5729 5722 5710 5711 5708 5702 5695 5687 5675 5674 5662 5641 5634 5629 5622 5617 5611 5603 5597 5589 5584 5579 5572 5567 5565 5562 5560 5559 5557 5555 5554 5554 5554 5555 5556 5559 5560 5561 5564 5567 5569 5572 5575 5578 5583 5588
5732 5733 5728 5727 5719 5704 5701 5704 5696 5691 5679 5667 5668 5660 5639 5631 5624 5618 5611 5604 5596 5587 5579 5572 5566 5561 5556 5550 5546 5544 5541 5541 5540 5540 5540 5542 5545 5547 5550 5550 5552 5553 5554 5556 5558 5561 5564 5567 5573
5737 5733 5724 5722 5715 5707 5697 5691 5688 5684 5667 5664 5661 5657 5638 5629 5619 5612 5605 5598 5587 5577 5568 5561 5555 5550 5546 5543 5538 5534 5532 5532 5532 5533 5533 5535 5540 5542 5543 5544 5543 5545 5545 5547 5548 5549 5552 5554 5556
5741 5726 5728 5719 5712 5699 5693 5682 5676 5674 5665 5656 5653 5651 5640 5625 5614 5608 5600 5592 5580 5568 5558 5551 5546 5542 5539 5538 5535 5532 5531 5530 5530 5530 5531 5533 5534 5535 5534 5534 5534 5536 5539 5541 5542 5543 5545 5546 5549
5730 5725 5713 5707 5705 5700 5688 5687 5673 5670 5660 5650 5643 5638 5629 5619 5614 5604 5592 5580 5570 5559 5552 5546 5541 5538 5536 5535 5533 5532 5531 5529 5528 5527 5525 5526 5527 5528 5528 5529 5529 5529 5529 5530 5533 5536 5538 5540 5539
5722 5714 5707 5696 5695 5697 5683 5676 5676 5673 5660 5659 5643 5633 5624 5616 5606 5597 5584 5573 5562 5555 5547 5542 5538 5537 5534 5533 5532 5531 5529 5526 5526 5524 5522 5521 5521 5522 5522 5522 5523 5522 5522 5522 5524 5525 5525 5525 5527
5711 5702 5702 5689 5687 5686 5680 5677 5671 5669 5660 5660 5649 5633 5619 5610 5601 5588 5576 5568 5559 5553 5545 5541 5536 5536 5533 5531 5530 5528 5526 5523 5522 5519 5517 5515 5515 5515 5516 5515 5514 5515 5515 5514 5514 5514 5514 5514 5514
5712 5698 5692 5686 5682 5681 5677 5673 5671 5659 5655 5654 5641 5626 5615 5605 5590 5579 5571 5564 5558 5554 5548 5542 5537 5532 5530 5529 5526 5525 5522 5519 5517 5515 5513 5512 5511 5511 5510 5509 5508 5506 5504 5501 5499 5500 5502 5501 5499
5707 5699 5689 5684 5678 5675 5673 5666 5664 5657 5653 5643 5631 5621 5611 5598 5586 5577 5571 5565 5562 5554 5547 5543 5537 5531 5527 5526 5523 5521 5519 5515 5514 5512 5510 5508 5506 5505 5504 5502 5500 5495 5490 5488 5486 5487 5486 5485 5484
5705 5693 5687 5681 5679 5674 5673 5663 5662 5662 5652 5640 5631 5620 5607 5593 5581 5579 5571 5566 5561 5556 5548 5540 5534 5531 5528 5526 5523 5521 5517 5513 5511 5509 5508 5505 5502 5499 5498 5496 5491 5484 5477 5475 5474 5474 5472 5470 5468
5703 5703 5697 5686 5678 5670 5665 5680 5671 5660 5650 5641 5632 5621 5603 5591 5586 5580 5571 5567 5560 5557 5549 5542 5537 5534 5531 5527 5522 5518 5514 5510 5508 5506 5504 5501 5498 5494 5491 5489 5484 5478 5472 5469 5467 5465 5461 5457 5453
5708 5713 5705 5685 5683 5676 5668 5681 5670 5661 5652 5644 5634 5623 5606 5596 5591 5583 5575 5567 5561 5552 5549 5545 5539 5534 5529 5525 5523 5519 5514 5511 5507 5504 5501 5498 5494 5489 5487 5485 5480 5472 5465 5462 5458 5454 5450 5447 5442
5712 5715 5709 5697 5683 5673 5676 5675 5673 5661 5654 5648 5637 5626 5613 5604 5596 5588 5577 5569 5561 5557 5550 5543 5539 5535 5529 5526 5523 5519 5517 5511 5507 5502 5498 5495 5490 5485 5482 5479 5475 5465 5458 5454 5450 5446 5441 5437 5432
5712 5708 5704 5700 5682 5674 5682 5683 5686 5671 5656 5650 5643 5632 5620 5610 5604 5591 5581 5572 5565 5559 5552 5547 5541 5535 5530 5527 5524 5518 5514 5511 5507 5501 5498 5493 5487 5483 5479 5475 5470 5464 5457 5449 5444 5440 5436 5428 5423
5709 5707 5710 5692 5680 5672 5689 5687 5692 5686 5667 5656 5649 5639 5630 5617 5608 5596 5586 5576 5570 5564 5556 5548 5541 5536 5532 5527 5521 5516 5514 5509 5505 5501 5497 5490 5487 5482 5478 5471 5467 5461 5455 5450 5439 5431 5427 5419 5414
5715 5703 5702 5690 5686 5684 5677 5689 5688 5686 5678 5664 5657 5649 5640 5628 5615 5605 5594 5584 5575 5568 5561 5552 5545 5540 5535 5529 5524 5519 5517 5514 5508 5500 5495 5490 5484 5479 5473 5468 5463 5458 5452 5447 5435 5427 5420 5414 5407
5701 5696 5690 5686 5684 5698 5686 5701 5698 5687 5674 5667 5660 5655 5647 5636 5624 5615 5602 5590 5581 5574 5565 5556 5550 5543 5536 5531 5528 5524 5519 5514 5507 5502 5497 5492 5484 5479 5473 5467 5462 5457 5451 5444 5435 5426 5416 5408 5402
5693 5687 5688 5686 5685 5689 5691 5686 5702 5697 5685 5682 5672 5666 5655 5645 5632 5621 5610 5600 5589 5580 5570 5563 5554 5547 5541 5535 5529 5525 5522 5518 5512 5506 5500 5495 5488 5482 5475 5468 5461 5454 5447 5441 5434 5426 5417 5406 5399
5687 5686 5688 5687 5690 5690 5701 5691 5706 5705 5709 5702 5690 5675 5663 5652 5641 5630 5619 5607 5595 5584 5573 5566 5559 5552 5546 5539 5533 5527 5521 5517 5512 5508 5503 5497 5491 5483 5476 5468 5460 5453 5444 5437 5432 5425 5416 5407 5398
5683 5692 5702 5701 5693 5710 5690 5684 5721 5721 5709 5705 5693 5681 5670 5659 5646 5634 5622 5610 5599 5589 5579 5572 5564 5558 5551 5543 5537 5529 5523 5517 5512 5508 5503 5496 5490 5483 5475 5466 5458 5451 5444 5437 5430 5423 5414 5406 5396
5689 5685 5690 5680 5702 5707 5678 5690 5718 5721 5705 5695 5689 5685 5674 5660 5650 5638 5626 5614 5604 5595 5586 5577 5569 5562 5554 5547 5539 5532 5525 5519 5515 5510 5503 5496 5489 5481 5473 5465 5458 5449 5440 5433 5427 5421 5413 5404 5396
5677 5679 5678 5682 5690 5687 5721 5723 5706 5700 5696 5688 5683 5676 5672 5663 5652 5642 5631 5620 5610 5600 5591 5582 5573 5565 5557 5548 5540 5535 5528 5522 5516 5510 5503 5496 5489 5482 5474 5466 5458 5449 5442 5433 5425 5420 5412 5402 5393
5669 5671 5675 5678 5663 5683 5727 5721 5726 5701 5704 5698 5686 5680 5673 5666 5655 5645 5635 5625 5615 5605 5595 5585 5576 5568 5561 5552 5545 5539 5532 5525 5519 5511 5504 5496 5489 5481 5474 5466 5459 5451 5442 5434 5422 5415 5409 5400 5391
5663 5671 5667 5666 5676 5677 5689 5725 5734 5730 5721 5712 5700 5689 5679 5669 5659 5649 5640 5630 5619 5610 5600 5590 5581 5572 5563 5555 5548 5541 5534 5527 5520 5512 5504 5497 5489 5482 5474 5467 5458 5451 5442 5434 5422 5413 5408 5399 5389
5662 5673 5677 5663 5670 5671 5662 5690 5726 5730 5724 5717 5709 5697 5685 5675 5665 5654 5643 5633 5623 5613 5603 5593 5584 5575 5566 5559 5550 5542 5535 5527 5521 5515 5508 5499 5491 5483 5476 5467 5458 5450 5442 5432 5423 5412 5406 5398 5389